Hourly Data Report for June 15, 2021

VINELAND STATION RCS
ONTARIO
Current Station Operator: ECCC - MSC

43°11'00.000" N
79°24'00.000" W
79.20 m
6139148
71171
XVN

Download Data

Hourly Data (June 2021)
Hourly Data Report for June 15, 2021
TIME
LST
Temp Definition
°C
Dew Point Definition
°C
Rel Hum Definition
%
Precip. Amount Definition
mm

Wind Dir Definition
10's deg

Wind Spd Definition
km/h
Visibility Definition
km
Stn Press Definition
kPa
Hmdx Definition


Wind Chill Definition


Weather Definition


00:00 16.8 14.4 86 0.0 28 9   100.01     LegendNANA
01:00 17.4 14.2 81 0.0 29 12   100.02     LegendNANA
02:00 17.3 14.1 82 0.0 29 10   100.00     LegendNANA
03:00 17.1 14.2 83 0.0 29 12   100.01     LegendNANA
04:00 16.9 14.2 84 0.0 29 9   100.01     LegendNANA
05:00 17.0 14.2 83 0.0 29 10   100.04     LegendNANA
06:00 17.0 13.7 81 0.0 30 11   100.08     LegendNANA
07:00 17.0 12.3 74 0.0 30 15   100.13     LegendNANA
08:00 17.7 12.5 72 0.0 30 16   100.16     LegendNANA
09:00 18.0 10.6 62 0.0 29 15   100.18     LegendNANA
10:00 19.1 10.3 56 0.0 31 12   100.21     LegendNANA
11:00 19.9 11.2 57 0.0 31 14   100.23     LegendNANA
12:00 21.1 10.1 49 0.0 32 13   100.23     LegendNANA
13:00 21.7 9.1 44 0.0 33 11   100.20     LegendNANA
14:00 21.3 5.1 35 0.0 33 12   100.23     LegendNANA
15:00 21.2 9.2 46 0.0 35 9   100.24     LegendNANA
16:00 20.7 10.5 52 0.0 36 16   100.26     LegendNANA
17:00 20.3 10.1 52 0.0 36 21   100.28     LegendNANA
18:00 19.8 8.6 48 0.0 35 19   100.31     LegendNANA
19:00 19.0 8.6 51 0.0 34 18   100.38     LegendNANA
20:00 18.3 7.8 50 0.0 33 17   100.38     LegendNANA
21:00 17.8 8.7 55 0.0 33 16   100.41     LegendNANA
22:00 17.5 8.2 54 0.0 33 16   100.42     LegendNANA
23:00 17.0 7.3 53 0.0 34 18   100.43     LegendNANA

Notes on Data Quality.

Legend

  • E = Estimated
  • M = Missing
  • NA = Not Available*
  • [empty] = Indicates an unobserved value
Date modified: